STARLINK-3859, 52470

Orbit data source: Space-Track

STARLINK-3859, 52470 is a payload satellite owned by SpaceX/Seattle (US) in LEO that was launched on Fri, 06 May 2022 UTC via an FALCON 9 launch vehicle from the Air Force Eastern Test Range (AFETR). Payload-class satellites include a variety of spacecraft equipped with specific instruments for various scientific and technological missions. These include communications satellites like Starlink; space stations such as the ISS; scientific satellites like the Hubble; Earth observation satellites from companies like Planet Labs, Umbra, and HawkEye 360; GPS; miniature CubeSats for education and research; and military/defense satellites.

Loading next visibility...
Identifier
52470, 2022-049V
Orbit
LEO
Country
Flag of USUS
Related business
Manufacturer
SpaceX/Seattle
Mission
Operational Commercial Communications
Bus & Motor
STARLINK, Unknown motor
Mass
297 kg wet, ~220 kg dry
Launch date (UTC)
2022-05-06 (4 years ago)
Launch vehicle
FALCON 9
Launch site
Air Force Eastern Test Range (AFETR)
Object type
Payload
Rocket body
Debris
Shape & HBR
Box + 1 Pan, 10.1 m
Radar Cross Section
13.562 m², Large (>1 m²)

Expand to show TLE details & history
Last TLE update: 1 day ago

TLE from 1 day ago
0 STARLINK-3859
1 52470U 22049V   26193.04178314  .00001792  00000-0  13061-3 0  9997
2 52470  53.1574 220.6339 0001308  80.6953 279.4186 15.08847952231027
Epoch: 2026-07-12T01:00Z
TLE epoch observation values (Epoch: 2026-07-12T01:00:10.063Z)
Latitude
-0.00003°
Longitude
-84.35439°
Altitude
540.462 km
Speed
7.593 km/s
True Right ascension
14h 42m 32s
True Declination
0° 00' 00"
Sunlit
Object was in daylight at epoch
Visualization orbit readout
Latitude
Unknown
Longitude
Unknown
Altitude
Unknown
Speed
Unknown
Apparent Right ascension
Unknown
Apparent Declination
Unknown
Sunlit
N/A
Visualization observer readout
Local Sidereal Time
21:30:08
Azimuth
Unknown
Elevation
Unknown
Doppler factor
Unknown
Orbital elements
Apogee altitude
540.879 km
Perigee altitude
539.069 km
Semi-major axis
6,918.111 km
Eccentricity
0.00013
Inclination
53.1574°
RAAN
220.6339°
Arg. of periapsis
80.6953°
True anomaly
279.40381°
Mean anomaly
279.4186°
Eccentric anomaly
279.41121°
Mean motion
3.77192 °/min
Orbital period
95.44 mins
BSTAR
0.00013061
Loading maneuver chart data...
Computing Atmospheric mass density...
Loading historical data...
Loading historical data...
Loading historical data...
Loading historical data...
Loading historical data...
Loading historical data...
Loading historical data...

Documentation

Showing up to 5 results
|